DW8078 Weather Reports


Display with metric or nautical units.
time (UTC)temp
F
wind
direction
speed
MPH
gust
MPH
rain 1hr
in
rain 24hr
in
rain mn
in
humidity
%
barometer
mb
20210619020123 70 186 3.0 7.0 0.00 0.00 0.00 71 1017.3
20210619014645 70 218 4.0 9.0 0.00 0.00 0.00 71 1017.3
20210619013111 70 192 6.0 10.0 0.00 0.00 0.00 70 1017.3
20210619011711 71 169 7.0 10.0 0.00 0.00 0.00 70 1017.2
20210619010147 71 190 6.0 11.0 0.00 0.00 0.00 69 1017.2
20210619004624 71 178 5.0 10.0 0.00 0.00 0.00 68 1017.4
20210619003247 72 188 5.0 9.0 0.00 0.00 0.00 68 1017.4
20210619001637 72 188 5.0 10.0 0.00 0.00 0.00 67 1017.4
20210619000044 72 180 4.0 8.0 0.00 0.00 0.00 67 1017.3
20210618234623 73 200 3.0 11.0 0.00 0.00 0.00 66 1017.4
20210618233041 73 194 4.0 9.0 0.00 0.00 0.00 66 1017.4
20210618231549 74 229 4.0 10.0 0.00 0.00 0.00 65 1017.4
20210618230052 74 198 4.0 11.0 0.00 0.00 0.00 64 1017.4
20210618224551 74 227 5.0 12.0 0.00 0.00 0.00 64 1017.4
20210618223039 75 184 6.0 11.0 0.00 0.00 0.00 63 1017.5
20210618221534 75 180 6.0 14.0 0.00 0.00 0.00 63 1017.3
20210618220048 76 219 5.0 14.0 0.00 0.00 0.00 62 1017.3
20210618214530 76 179 5.0 14.0 0.00 0.00 0.00 62 1017.2
20210618213054 76 215 5.0 13.0 0.00 0.00 0.00 61 1017.4
20210618211526 77 215 6.0 16.0 0.00 0.00 0.00 61 1017.3
20210618210022 77 232 3.0 14.0 0.00 0.00 0.00 61 1017.5
20210618204546 77 196 3.0 11.0 0.00 0.00 0.00 61 1017.5
20210618203021 77 165 3.0 8.0 0.00 0.00 0.00 61 1017.3
20210618201526 78 180 1.0 6.0 0.00 0.00 0.00 60 1017.4
20210618200037 78 160 0.0 7.0 0.00 0.00 0.00 59 1017.4
20210618194546 78 167 1.0 7.0 0.00 0.00 0.00 60 1017.4
20210618193033 79 195 1.0 5.0 0.00 0.00 0.00 60 1017.3
20210618191529 80 169 2.0 4.0 0.00 0.00 0.00 59 1017.3
20210618190017 81 166 0.0 5.0 0.00 0.00 0.00 57 1017.1
20210618184546 82 150 0.0 0.0 0.00 0.00 0.00 56 1016.9
20210618183016 83 178 0.0 0.0 0.00 0.00 0.00 54 1017.0
20210618181511 84 199 0.0 4.0 0.00 0.00 0.00 52 1017.1
20210618180010 84 202 0.0 4.0 0.00 0.00 0.00 51 1017.0
20210618174509 85 188 0.0 0.0 0.00 0.00 0.00 50 1017.0
20210618173010 85 194 0.0 3.0 0.00 0.00 0.00 49 1017.0
20210618171516 86 206 0.0 4.0 0.00 0.00 0.00 48 1016.9
20210618170008 87 258 0.0 7.0 0.00 0.00 0.00 47 1016.9
20210618164507 86 182 0.0 7.0 0.00 0.00 0.00 46 1017.0
20210618163007 87 206 0.0 8.0 0.00 0.00 0.00 45 1017.0
20210618161536 87 176 2.0 13.0 0.00 0.00 0.00 44 1017.2
20210618160004 87 186 3.0 11.0 0.00 0.00 0.00 44 1017.3
20210618154504 88 263 3.0 8.0 0.00 0.00 0.00 45 1017.3
20210618153001 88 185 3.0 8.0 0.00 0.00 0.00 44 1017.4
20210618151644 87 227 2.0 10.0 0.00 0.00 0.00 46 1017.4
20210618150156 87 214 1.0 11.0 0.00 0.00 0.00 46 1017.5
20210618144734 87 286 4.0 9.0 0.00 0.00 0.00 47 1017.5
20210618143214 87 280 0.0 9.0 0.00 0.00 0.00 48 1017.7
20210618141654 87 240 1.0 7.0 0.00 0.00 0.00 48 1017.6
20210618140140 88 254 3.0 10.0 0.00 0.00 0.00 49 1017.8
20210618134656 87 207 0.0 10.0 0.00 0.00 0.00 47 1018.1
20210618133216 86 170 0.0 10.0 0.00 0.00 0.00 47 1018.0
20210618131610 86 281 2.0 11.0 0.00 0.00 0.00 50 1018.2
20210618130242 86 215 5.0 12.0 0.00 0.00 0.00 50 1018.2
20210618124642 86 249 3.0 8.0 0.00 0.00 0.00 50 1018.4
20210618123135 85 170 3.0 12.0 0.00 0.00 0.00 50 1018.5
20210618121606 85 268 2.0 10.0 0.00 0.00 0.00 51 1018.8
20210618120125 85 272 4.0 14.0 0.00 0.00 0.00 51 1018.8
20210618114600 84 190 0.0 12.0 0.00 0.00 0.00 51 1018.9
20210618113059 85 186 0.0 9.0 0.00 0.00 0.00 48 1018.8
20210618111631 84 261 2.0 12.0 0.00 0.00 0.00 47 1018.9
20210618110139 84 232 0.0 12.0 0.00 0.00 0.00 47 1018.9
20210618104612 83 252 0.0 10.0 0.00 0.00 0.00 48 1019.0
20210618103126 82 203 1.0 13.0 0.00 0.00 0.00 47 1019.3
20210618101609 82 250 0.0 12.0 0.00 0.00 0.00 49 1019.2
20210618100040 82 231 2.0 9.0 0.00 0.00 0.00 45 1019.2
20210618094628 82 283 0.0 10.0 0.00 0.00 0.00 45 1019.2
20210618093048 81 238 1.0 8.0 0.00 0.00 0.00 49 1019.4
20210618091528 81 200 2.0 7.0 0.00 0.00 0.00 50 1019.4
20210618090034 80 219 2.0 7.0 0.00 0.00 0.00 52 1019.5
20210618084524 80 240 1.0 8.0 0.00 0.00 0.00 52 1019.6
20210618083036 80 261 1.0 6.0 0.00 0.00 0.00 53 1019.6
20210618081504 79 192 1.0 9.0 0.00 0.00 0.00 55 1019.7
20210618080132 78 200 0.0 9.0 0.00 0.00 0.00 56 1019.8
20210618074758 78 209 2.0 7.0 0.00 0.00 0.00 54 1019.9
20210618073134 77 190 3.0 9.0 0.00 0.00 0.00 54 1020.0
20210618071703 76 197 1.0 6.0 0.00 0.00 0.00 55 1020.0
20210618070140 76 200 0.0 7.0 0.00 0.00 0.00 57 1020.0
20210618064620 75 168 0.0 6.0 0.00 0.00 0.00 56 1020.2
20210618063135 74 186 0.0 6.0 0.00 0.00 0.00 58 1020.1
20210618061554 73 184 1.0 11.0 0.00 0.00 0.00 59 1020.2
20210618060107 73 178 0.0 5.0 0.00 0.00 0.00 60 1020.2
20210618054613 72 207 1.0 7.0 0.00 0.00 0.00 59 1020.1
20210618053022 71 188 1.0 7.0 0.00 0.00 0.00 60 1020.2
20210618051525 70 182 0.0 5.0 0.00 0.00 0.00 62 1020.1
20210618050010 69 178 1.0 6.0 0.00 0.00 0.00 62 1020.1
20210618044521 68 191 1.0 5.0 0.00 0.00 0.00 63 1020.1
20210618043001 67 170 0.0 7.0 0.00 0.00 0.00 65 1020.2
20210618041718 66 198 0.0 6.0 0.00 0.00 0.00 65 1020.2
20210618040158 65 180 1.0 9.0 0.00 0.00 0.00 66 1020.1
20210618034706 64 158 0.0 8.0 0.00 0.00 0.00 67 1020.2
20210618033101 64 178 0.0 0.0 0.00 0.00 0.00 69 1020.2
20210618031615 64 178 0.0 3.0 0.00 0.00 0.00 67 1020.2
20210618030128 64 187 0.0 3.0 0.00 0.00 0.00 67 1020.0
20210618024618 63 182 0.0 5.0 0.00 0.00 0.00 68 1019.9
20210618023053 63 210 0.0 0.0 0.00 0.00 0.00 69 1020.0
20210618021600 64 190 0.0 4.0 0.00 0.00 0.00 67 1020.0